Location: Hochstatterhof
(48.7256°N, 10.3487°E)
Time: 01:46:41
(UTC+00:00)

ATLAS 5 CENTAUR R/B - Pass Details

Date: 26 September 2023
Orbit: 432 x 1181 km, 63.3° (Epoch: 28 November)

Event Time Altitude Azimuth Distance (km) Brightness Sun altitude
Exits shadow 02:42:47 22° 343° (NNW) 1,181 3.1 -24.2°
Drops below altitude 10° 02:45:37 10° 25° (NNE) 1,877 4.7 -23.8°
Enters shadow 03:50:02 -67° 240° (WSW) 12,607 8.1 -13.9°
